Flag for Austria Weather past 2 weeks in Gmünd, Lower Austria, Austria

55 °F

Passing clouds.

Feels Like: 53 °F
Forecast: 40 / 47 °F
Wind: 8 mph from East

Location: Linz / Hoersching-Flughafen

Current Time: Oct 10, 2015 at 12:56:23 AM

Latest Report: Oct 9, 2015 at 11:50 PM

Visibility: N/A

Pressure: 30.09 "Hg

Humidity: 88%

Dew point: 52 °F

Location of GmündLocation

Historic Weather in Gmünd — Graph


Gmünd temperature yesterday

Maximum temperature yesterday: 63 °F (at 1:20 PM)
Minimum temperature yesterday: 52 °F (at 7:50 AM)
Average temperature yesterday: 57 °F

Past Weeks' High & Low Weather Summary

High72 °F (Oct 3, 3:20 PM)100% (Oct 4, 2:20 AM)30.51 "Hg (Oct 4, 2:20 AM)
Low41 °F (Sep 30, 5:50 AM)36% (Oct 1, 1:20 PM)29.74 "Hg (Oct 6, 4:50 PM)
Average55 °F74%30.18 "Hg
* Reported Sep 24 11:20 PM — Oct 9 11:50 PM, Gmünd, Weather by CustomWeather, © 2015

Note: Actual official high and low records may vary slightly from our data, if they occured in-between our weather recording intervals... More about our weather records


Gmünd weather history for previous 24 hours

Time TempWeatherWind HumidityBarometerVisibility
11:50 PM
Fri, Oct 9
55 °FPassing clouds.8 mph88%30.09 "HgN/A
10:50 PM57 °FPartly cloudy.7 mph88%30.09 "HgN/A
10:20 PM57 °FPartly cloudy.8 mph88%30.09 "HgN/A
9:50 PM57 °FPartly cloudy.8 mph88%30.09 "HgN/A
9:20 PM57 °FPartly cloudy.5 mph88%30.09 "HgN/A
8:50 PM59 °FPartly cloudy.3 mph82%30.07 "HgN/A
8:20 PM59 °FPassing clouds.3 mph82%30.07 "HgN/A
7:50 PM59 °FPartly cloudy.3 mph82%30.07 "HgN/A
7:20 PM59 °FBroken clouds.2 mph82%30.07 "HgN/A
6:50 PM59 °FPartly sunny.1 mph88%30.07 "HgN/A
6:20 PM61 °FPartly sunny.2 mph72%30.07 "HgN/A
5:50 PM61 °FPartly sunny.2 mph72%30.07 "HgN/A
5:20 PM61 °FPartly sunny.2 mph72%30.07 "HgN/A
4:20 PM63 °FPartly sunny.3 mph68%30.07 "HgN/A
3:50 PM63 °FPartly sunny.2 mph59%30.07 "HgN/A
3:20 PM63 °FPartly sunny.3 mph68%30.07 "HgN/A
2:50 PM63 °FPartly sunny.1 mph64%30.07 "HgN/A
2:20 PM63 °FScattered clouds.2 mph64%30.09 "HgN/A
1:50 PM63 °FBroken clouds.3 mph68%30.09 "HgN/A
1:20 PM63 °FBroken clouds.2 mph68%30.09 "HgN/A
12:50 PM61 °FBroken clouds.3 mph72%30.09 "HgN/A
12:20 PM59 °FBroken clouds.2 mph77%30.12 "HgN/A
11:50 AM59 °FBroken clouds.1 mph77%30.12 "HgN/A
11:20 AM57 °FPartly sunny.1 mph82%30.12 "Hg6 mi
10:50 AM57 °FPartly sunny.1 mph82%30.12 "Hg6 mi
10:20 AM55 °FBroken clouds.1 mph94%30.12 "Hg6 mi
9:50 AM55 °FBroken clouds.1 mph94%30.12 "Hg5 mi
9:20 AM55 °FBroken clouds.1 mph94%30.12 "Hg4 mi
8:50 AM54 °FFog.1 mph100%30.12 "Hg3 mi
8:20 AM54 °FFog.1 mph94%30.12 "Hg2 mi
7:50 AM52 °FCool.1 mph100%30.12 "Hg2 mi
7:20 AM54 °FFog.1 mph94%30.09 "Hg3 mi
6:50 AM54 °FFog.2 mph94%30.09 "Hg3 mi
6:20 AM54 °FPassing clouds.2 mph94%30.09 "Hg4 mi
5:20 AM54 °FPassing clouds.3 mph94%30.09 "Hg4 mi
4:50 AM54 °FPassing clouds.5 mph94%30.12 "Hg4 mi
4:20 AM54 °FPassing clouds.6 mph94%30.12 "Hg4 mi
3:50 AM54 °FPassing clouds.5 mph94%30.12 "Hg4 mi
3:20 AM54 °FPassing clouds.5 mph94%30.12 "Hg4 mi
2:50 AM54 °FPartly cloudy.7 mph94%30.12 "Hg4 mi
2:20 AM54 °FPassing clouds.8 mph94%30.12 "Hg4 mi
1:50 AM54 °FPassing clouds.9 mph94%30.12 "Hg4 mi
1:20 AM54 °FFog.8 mph94%30.12 "Hg3 mi
12:50 AM54 °FDrizzle. Fog.7 mph94%30.12 "Hg3 mi
12:20 AM54 °FLight rain. Passing clouds.9 mph94%30.12 "Hg4 mi
Weather by CustomWeather, © 2015

See weather overviewHow to use our weather pages